Погода в Пинске

Погода в Пинске : погода сейчас, прогноз погоды и архив. Всё, что Вы хотите узнать о погоде в Пинске!

Хотите узнать прогноз погоды в Пинске? Тогда Вам сюда: Погода в Пинске

Поиск расширенной информации на нашем сайте:

Другие новости

Новости СМИ2

Главная страница сайта

Новости сайта

03.07.2017

Напоминаем, что на нашем специализированном сайте Метеоцентр.Азия вы можете получить высокодетализированные автоматические прогнозы погоды по пунктам России, СНГ и мира в авиационном формате (включающие направление и скорость ветра, видимость, явления погоды, количество и форму облачности, нижнюю и верхнюю границу облачности).


Погода в Пинске - сегодня

Время (UTC), дата Ветер
(°,м/с) 
Видим.   Явления Облачность Т
(°С)
Тd
(°С)
f(%) Тe
(°С)
Pmin
(гПа)
dP
(гПа)
Po
(мм)
O2
(г/м3)
Тmin Tmax R s Состояние
почвы
00 25.05.18 070 (В) 10 км    8/0 верхняя 
[Ci fib]
+13.2 +10.1 81 +15  1020.7  -0.4  753  287           
03 25.05.18 090 (В) 10 км    8/0 средняя, верхняя 
[Ac trans|Ci fib]
+11.5 +9.8 89 +14  1021.2  0.4  753  289           
06 25.05.18 180 (Ю) 15000 м    ясно 
+17.7 +12.9 73 +24  1021.1  0.3  753  282  +11.4         
09 25.05.18 140 (ЮВ) 20000 м    4/3 1000 м верхняя 
[Cu hum|Ci fib]
+22.3 +14 59 +29  1021.2  0.4  754  278           
12 25.05.18 170 (Ю) 20000 м    6/6 600 м 
[Cu hum]
+25.3 +12 43 +29  1020.8  -0.2  753  276           
15 25.05.18 190 (Ю) 15000 м    9/9 600 м кучево-дожд. 
[Cb calv]
+25.2 +12.1 44 +29  1020.6  -0.2  753  276           
18 25.05.18 140 (ЮВ) 10 км    9/0 средняя, верхняя 
[Ac trans|Ci fib]
+21.7 +13.1 58 +27  1021.7  0.9  754  279    +27.4       
21 25.05.18 110 (В) 10 км    8/0 средняя 
[Ac trans]
+18.1 +14.2 78 +27  1023.5  1.5  755  282           
00 26.05.18 130 (ЮВ) 10 км    4/0 верхняя 
[Ci fib]
+16.4 +11.9 75 +21  1024.7  1.1  756  285           
03 26.05.18 130 (ЮВ) 10 км    3/0 верхняя 
[Ci fib]
+14.3 +11.8 85 +18  1025.7  0.8  756  287           
06 26.05.18 150 (ЮВ) 20000 м    3/0 верхняя 
[Ci fib]
+19.5 +12.7 65 +25  1025.9  0.6  757  282  +14.3         
09 26.05.18 130 (ЮВ) 30000 м    8/0 верхняя 
[Ci fib]
+23.7 +13.7 53 +30  1026.1  0.4  757  278           
12 26.05.18 130 (ЮВ) 30000 м    10/0 верхняя 
[Ci fib]
+23.4 +11.3 47 +26  1026  -0.1  757  279           
15 26.05.18 150 (ЮВ) 30000 м    8/0 средняя, верхняя 
[Ac trans|Ci fib]
+23 +10.2 44 +24  1024.4  -1.6  756  279           
18 26.05.18 140 (ЮВ) 10 км    8/0 верхняя 
[Ci fib]
+20.5 +9.9 51 +21  1025.3  0.7  756  282    +25       
21 26.05.18 140 (ЮВ) 10 км    3/0 средняя 
[Ac trans]
+17 +8 55 +18  1026.1  0.6  757  286           
00 27.05.18 150 (ЮВ) 10 км    3/0 средняя 
[Ac trans]
+14.4 +6.7 60 +15  1026.4  0.1  757  289           
03 27.05.18 140 (ЮВ) 10 км    3/0 верхняя 
[Ci fib]
+11.8 +5.7 66 +12  1026.2  -0.3  757  291           
06 27.05.18 180 (Ю) 15000 м    3/0 верхняя 
[Ci fib]
+17.8 +7.4 51 +19  1026.3  0.5  757  285  +11.8         
09 27.05.18 160 (Ю) 20000 м    3/0 верхняя 
[Ci fib]
+23.1 +10 43 +24  1025.8  -0.2  757  279           
12 27.05.18 160 (Ю) 20000 м    3/0 верхняя 
[Ci fib]
+25.5 +6.7 30 +26  1024.4  -1.2  756  278           
15 27.05.18 140 (ЮВ) 20000 м    3/0 верхняя 
[Ci fib]
+25.3 +6.8 31 +25  1023.4  -1  755  277           
18 27.05.18 160 (Ю) 12000 м    3/0 верхняя 
[Ci fib]
+22.4 +8.3 40 +22  1023.4  -0.2  755  280    +26.5       
21 27.05.18 130 (ЮВ) 10 км    ясно 
+17.2 +7.9 54 +19  1024.7  0.9  756  285           
00 28.05.18 120 (ЮВ) 10 км    ясно 
+14.2 +7.6 64 +15  1025.5  0.6  756  288           
Время (UTC), дата Ветер
(°,м/с) 
Видим.   Явления Облачность Т
(°С)
Тd
(°С)
f(%) Тe
(°С)
Pmin
(гПа)
dP
(гПа)
Po
(мм)
O2
(г/м3)
Тmin Tmax R s Состояние
почвы

Для получения пояснительной информации подведите курсор к названию столбца.

ПОГОДА в Пинске - архив

Всё, что Вы хотите узнать о погоде в Пинске - удобно и подробно!

Выберите нужную дату (начиная с 1 января 2015* года) и нажмите кнопку "Найти".
Будут отображены архивные сводки погоды по пункту Пинск, начиная с указанной даты.


Отображать данные в формате CSV (для использования в таблицах Excel)


Внимание! Наш архив погоды предназначен исключительно для личного некоммерческого использования в познавательных целях. Если Вам необходимы официальные справки о состоянии погоды (для производственных, юридических, коммерческих и т.п. целей), обращайтесь в органы Росгидромета.

*Примечание: данная дата относится к архиву по метеостанциям СССР (Россия, СНГ, Балтия).
Архив по метеостанциям Зарубежной Европы и Азии (кроме Китая) хранится 10 дней, по другим регионам земного шара (Китай, Африка, Америка, Австралия, Океания) - 1 день.

Пинск - район местоположения метеостанции


Название, широта, долгота, высота метеостанции:
Пинск 52.1°ш. 26.1°д. 142 м над ур. моря [Беларусь]

Дополнительная информация

В oтличие oт бoльшинства пoгoдных сайтoв мы публикуем пoдрoбную метеoинфoрмацию в детальнoм прoфессиoнальнoм фoрмате.

Характеристики температуры и влажнoсти вoздуха измеряются на высoте 2 м в тени вдали oт зданий и деревьев.
Скoрoсть ветра измеряется на высoте 10 м (на урoвне рoста челoвека скoрoсть ветра ниже в 1.5-2 раза). Если метеoстанция нахoдится в гoрoде или в лесу, тo скoрoсть ветра занижена на 2-4 м/с пo сравнению с oткрытым местoм. Скoрoсть ветра над акватoриями крупных рек и oзёр, а также на вершинах хoлмoв на 2-5 м/с выше, чем в oбычных услoвиях.
Атмoсфернoе давление в разных тoчках местнoсти мoжет значительнo oтличаться oт давления на метеoстанции, в зависимoсти oт услoвий рельефа (при пoдъёме на 10 м давление пoнижается примернo на 1 мм рт.ст.).